Location: *
(35.8942°N, 23.3025°E)
Time: 22:10:35
(UTC+00:00)

N. Korean satellite - Pass Details

Date: 30 November 2022
Orbit: 407 x 442 km, 97.3° (Epoch: 05 February)

Event Time Altitude Azimuth Distance (km) Brightness Sun altitude
Rises 04:29:50 0° 353° (N) 2,522 9.9 -9.7°
Reaches altitude 10° 04:32:21 10° 335° (NNW) 1,635 8.8 -9.2°
Maximum altitude 04:34:49 18° 290° (WNW) 1,197 7.9 -8.8°
Drops below altitude 10° 04:37:17 10° 244° (WSW) 1,612 8.8 -8.3°
Sets 04:39:44 0° 226° (SW) 2,472 9.9 -7.8°
